Weather History for Defuniak Springs, Defuniak Sp, FL

Change the Weather History Date:

Friday, May 2, 2014

  Actual Average (KCEW) Record (KCEW)
Temperature  
Mean Temperature 62 °F -  
Max Temperature 70 °F 81 °F 91 °F (1990)
Min Temperature 55 °F 58 °F 39 °F (1999)
Degree Days  
Heating Degree Days 2    
Growing Degree Days 12 (Base 50)    
Moisture  
Dew Point 54 °F    
Average Humidity 78    
Maximum Humidity 99    
Minimum Humidity 48    
Precipitation  
Precipitation 0.15 in - - ()
Sea Level Pressure  
Sea Level Pressure 29.99 in    
Wind  
Wind Speed 2 mph (NE)    
Max Wind Speed 7 mph    
Max Gust Speed -    
Visibility 10 miles    
Events Rain    
Averages and records for this station are not official NWS values.
T = Trace of Precipitation, MM = Missing Value Source: NWS Daily Summary

Daily Weather History Graph

Daily Weather History Graph

Search for Another Location

Airport:

Trip Planner

Search our weather history database for the weather conditions in past years. The results will help you decide how hot, cold, wet, or windy it might be!

Date:

Astronomy

May. 02, 2014 Rise Set
Actual Time 5:59 AM CDT 7:23 PM CDT
Civil Twilight 5:34 AM CDT 7:49 PM CDT
Nautical Twilight 5:03 AM CDT 8:20 PM CDT
Astronomical Twilight 4:31 AM CDT 8:52 PM CDT
Moon 8:40 AM CDT 10:41 PM CDT
Length of Visible Light 14h 15m
Length of Day
13h 24m
Waxing Crescent, 12% of the Moon is Illuminated
May 2
Waxing Crescent
May 6
First Quarter
May 14
Full
May 21
Last Quarter
May 28
New

Hourly Weather History & Observations

Time (CDT) Temp. Dew Point Humidity Pressure Visibility Wind Dir Wind Speed Gust Speed Precip Events Conditions
12:15 AM 58.1 °F 57.2 °F 97% 30.03 in 10.0 mi South 3.5 mph - N/A   Overcast
12:35 AM 57.6 °F 57.2 °F 99% 30.04 in 10.0 mi Calm Calm - N/A   Overcast
12:55 AM 57.7 °F 57.2 °F 98% 30.04 in 10.0 mi SW 3.5 mph - N/A   Overcast
1:15 AM 57.7 °F 56.7 °F 96% 30.05 in 10.0 mi SSW 3.5 mph - N/A Rain Light Rain
1:35 AM 57.4 °F 56.7 °F 97% 30.04 in 10.0 mi Calm Calm - N/A Rain Rain
1:55 AM 57.4 °F 56.8 °F 98% 30.02 in 7.0 mi Calm Calm - 0.01 in Rain Rain
2:15 AM 57.4 °F 56.8 °F 98% 30.01 in 10.0 mi Calm Calm - N/A Rain Rain
2:35 AM 57.4 °F 57.2 °F 99% 30.00 in 7.0 mi ESE 3.5 mph - 0.02 in Rain Rain
2:55 AM 57.4 °F 57.2 °F 99% 30.00 in 10.0 mi Calm Calm - 0.03 in Rain Light Rain
3:15 AM 57.4 °F 54.7 °F 91% 30.00 in 10.0 mi Calm Calm - 0.01 in Rain Light Rain
3:35 AM 57.2 °F 54.7 °F 91% 30.00 in 10.0 mi Calm Calm - 0.01 in Rain Light Rain
3:55 AM 57.2 °F 55.6 °F 94% 29.99 in 10.0 mi Calm Calm - 0.02 in   Light Drizzle
4:15 AM 56.5 °F 55.2 °F 96% 29.98 in 10.0 mi North 3.5 mph - N/A Rain Light Rain
4:35 AM 56.7 °F 54.7 °F 93% 29.98 in 10.0 mi Calm Calm - N/A   Light Drizzle
4:55 AM 55.9 °F 55.8 °F 99% 30.00 in 10.0 mi Calm Calm - 0.01 in Rain Light Rain
5:15 AM 55.9 °F 55.8 °F 99% 30.01 in 10.0 mi Calm Calm - N/A Rain Light Rain
5:35 AM 55.9 °F 55.8 °F 99% 30.03 in 5.0 mi Calm Calm - 0.04 in Rain Rain
5:55 AM 55.9 °F 55.8 °F 99% 30.01 in 7.0 mi SE 3.5 mph - 0.06 in Rain Light Rain
6:15 AM 55.4 °F 53.8 °F 94% 30.00 in 10.0 mi Calm Calm - 0.01 in Rain Light Rain
6:35 AM 55.4 °F 54.1 °F 96% 30.01 in 10.0 mi Calm Calm - 0.02 in Rain Light Rain
6:55 AM 55.4 °F 54.0 °F 95% 30.00 in 10.0 mi ENE 4.6 mph - 0.02 in   Overcast
7:15 AM 55.6 °F 53.8 °F 94% 30.00 in 10.0 mi ENE 3.5 mph - N/A   Overcast
7:35 AM 55.9 °F 53.6 °F 92% 30.00 in 10.0 mi NE 4.6 mph - N/A   Overcast
7:55 AM 56.3 °F 54.1 °F 92% 30.00 in 10.0 mi East 3.5 mph - N/A   Overcast
8:15 AM 56.5 °F 53.6 °F 90% 30.00 in 10.0 mi Calm Calm - N/A   Overcast
8:35 AM 57.6 °F 52.9 °F 84% 30.00 in 10.0 mi Calm Calm - N/A   Overcast
8:55 AM 57.7 °F 53.1 °F 84% 30.00 in 10.0 mi NE 3.5 mph - N/A   Overcast
9:15 AM 58.5 °F 53.2 °F 83% 30.00 in 10.0 mi NE 4.6 mph - N/A   Overcast
9:35 AM 59.4 °F 53.2 °F 80% 29.99 in 10.0 mi East 5.8 mph - N/A   Overcast
9:55 AM 60.4 °F 53.6 °F 78% 30.00 in 10.0 mi ENE 4.6 mph - N/A   Overcast
10:15 AM 61.7 °F 51.8 °F 70% 30.01 in 10.0 mi NE 4.6 mph - N/A   Overcast
10:35 AM 61.7 °F 51.4 °F 69% 30.02 in 10.0 mi ENE 3.5 mph - N/A   Overcast
10:55 AM 61.7 °F 50.4 °F 66% 30.02 in 10.0 mi ENE 5.8 mph - N/A   Overcast
11:15 AM 62.4 °F 51.1 °F 66% 30.01 in 10.0 mi East 4.6 mph - N/A   Overcast
11:35 AM 62.8 °F 51.6 °F 67% 30.00 in 10.0 mi NE 5.8 mph - N/A   Overcast
12:15 PM 63.0 °F 50.9 °F 65% 30.01 in 10.0 mi Calm Calm - N/A   Overcast
12:35 PM 63.3 °F 51.1 °F 64% 30.00 in 10.0 mi ESE 3.5 mph - N/A   Overcast
12:55 PM 64.2 °F 50.9 °F 62% 29.99 in 10.0 mi Calm Calm - N/A   Overcast
1:15 PM 65.3 °F 51.1 °F 60% 29.99 in 10.0 mi Calm Calm - N/A   Overcast
1:35 PM 65.5 °F 50.7 °F 59% 29.99 in 10.0 mi Calm Calm - N/A   Scattered Clouds
1:55 PM 66.0 °F 51.8 °F 60% 29.98 in 10.0 mi Calm Calm - N/A   Clear
2:15 PM 66.2 °F 50.9 °F 58% 29.99 in 10.0 mi Calm Calm - N/A   Scattered Clouds
2:35 PM 66.9 °F 51.6 °F 58% 29.96 in 10.0 mi Calm Calm - N/A   Scattered Clouds
2:55 PM 68.5 °F 49.3 °F 50% 29.96 in 10.0 mi North 4.6 mph - N/A   Scattered Clouds
3:15 PM 68.9 °F 49.1 °F 49% 29.95 in 10.0 mi NNW 3.5 mph - N/A   Clear
3:35 PM 69.4 °F 49.5 °F 49% 29.95 in 10.0 mi NNW 6.9 mph - N/A   Clear
3:55 PM 68.9 °F 49.3 °F 50% 29.94 in 10.0 mi ENE 3.5 mph - N/A   Clear
4:15 PM 70.7 °F 50.9 °F 49% 29.94 in 10.0 mi NNW 6.9 mph - N/A   Scattered Clouds
4:35 PM 70.9 °F 51.4 °F 50% 29.93 in 10.0 mi NNW 4.6 mph - N/A   Scattered Clouds
4:55 PM 70.9 °F 51.3 °F 50% 29.92 in 10.0 mi NNE 6.9 mph - N/A   Clear
5:15 PM 70.9 °F 50.5 °F 48% 29.92 in 10.0 mi NNW 3.5 mph - N/A   Clear
5:35 PM 70.2 °F 51.3 °F 51% 29.92 in 10.0 mi North 3.5 mph - N/A   Clear
5:55 PM 69.8 °F 51.3 °F 52% 29.94 in 10.0 mi North 3.5 mph - N/A   Clear
6:15 PM 69.6 °F 51.1 °F 52% 29.94 in 10.0 mi Calm Calm - N/A   Clear
6:35 PM 66.6 °F 58.8 °F 76% 29.94 in 10.0 mi Calm Calm - N/A   Clear
6:55 PM 66.2 °F 56.5 °F 71% 29.93 in 10.0 mi SE 3.5 mph - N/A   Clear
7:10 PM 65.5 °F 56.3 °F 72% 29.94 in 10.0 mi South 3.5 mph - N/A   Clear
7:35 PM 64.4 °F 55.6 °F 73% 29.92 in 10.0 mi Calm Calm - N/A   Clear
7:55 PM 63.1 °F 56.5 °F 79% 29.94 in 10.0 mi WSW 3.5 mph - N/A   Clear
8:15 PM 62.4 °F 55.4 °F 78% 29.96 in 10.0 mi WSW 3.5 mph - N/A   Scattered Clouds
8:35 PM 61.9 °F 55.4 °F 79% 29.96 in 10.0 mi WSW 3.5 mph - N/A   Mostly Cloudy
8:55 PM 61.7 °F 55.0 °F 79% 29.97 in 10.0 mi WSW 4.6 mph - N/A   Overcast
9:15 PM 61.7 °F 54.7 °F 78% 29.98 in 10.0 mi WSW 4.6 mph - N/A   Overcast
9:35 PM 61.3 °F 54.7 °F 79% 29.99 in 10.0 mi WSW 3.5 mph - N/A   Overcast
9:50 PM 61.0 °F 54.5 °F 79% 29.98 in 10.0 mi Calm Calm - N/A   Overcast
10:15 PM 60.8 °F 54.7 °F 80% 29.99 in 10.0 mi West 3.5 mph - N/A   Mostly Cloudy
10:35 PM 60.8 °F 54.7 °F 80% 30.00 in 10.0 mi WSW 4.6 mph - N/A   Mostly Cloudy
10:55 PM 60.8 °F 54.5 °F 80% 29.99 in 10.0 mi Calm Calm - N/A   Scattered Clouds
11:15 PM 60.4 °F 54.5 °F 81% 29.99 in 10.0 mi Calm Calm - N/A   Scattered Clouds
11:35 PM 60.4 °F 54.7 °F 81% 29.99 in 10.0 mi Calm Calm - N/A   Mostly Cloudy
11:55 PM 59.9 °F 55.8 °F 86% 30.00 in 10.0 mi Calm Calm - N/A   Mostly Cloudy